Notices

What's New in latest Release from April 7th, 2021:

- Updated Glossary, including Speed of Maximum Gust, and Total Hourly Precipitation

- Updated national and regional climate services offices contacts and prices information

- Addition of station inventory lists for 1981-2010, 1971-2000, and 1961-1990 Normals.

If you haven't already, please take our survey and provide feedback about our website: https://eccc.sondage-survey.ca/f/LanguageSelection.aspx?s=442ca660-fcf1-47c0-95a9-59707d6fd709

Hourly Data Report for April 10, 2021

MONTREAL MIRABEL INTL A
QUEBEC
Current Station Operator: NAVCAN

45°40'50.000" N
74°02'19.000" W
82.30 m
7034900
YMX

Download Data

Hourly Data (April 2021)
Hourly Data Report for April 10, 2021
TIME
LST
Temp Definition
°C
Dew Point Definition
°C
Rel Hum Definition
%
Precip. Amount Definition
mm

Wind Dir Definition
10's deg

Wind Spd Definition
km/h
Visibility Definition
km
Stn Press Definition
kPa
Hmdx Definition


Wind Chill Definition


Weather Definition


00:00 16.0 6.3 52   36 7 40.2 100.51     LegendNANA
01:00 14.9 6.6 57   5 7 40.2 100.51     Mostly Cloudy
02:00 13.6 7.6 67   7 9 40.2 100.53     LegendNANA
03:00 12.1 6.7 70   36 1 40.2 100.52     LegendNANA
04:00 11.1 6.5 73   36 1 40.2 100.51     Mainly Clear
05:00 10.5 6.6 77   36 2 40.2 100.49     LegendNANA
06:00 10.6 6.4 76   6 3 48.3 100.50     LegendNANA
07:00 10.9 6.6 74   7 4 48.3 100.55     Mostly Cloudy
08:00 11.9 6.0 67   6 4 48.3 100.57     LegendNANA
09:00 14.7 6.7 59   8 13 48.3 100.45     LegendNANA
10:00 17.3 8.4 56   25 7 48.3 100.44     Clear
11:00 18.7 8.2 50   14 10 48.3 100.30     LegendNANA
12:00 20.1 8.7 47   15 9 48.3 100.21     LegendNANA
13:00 20.2 8.6 47   15 4 48.3 100.13     Clear
14:00 20.8 8.7 45   36 3 48.3 100.03     LegendNANA
15:00 22.0 9.1 43   17 9 48.3 99.94     LegendNANA
16:00 22.4 8.9 42   20 9 48.3 99.87     Mainly Clear
17:00 22.2 8.7 42   20 4 48.3 99.82     LegendNANA
18:00 21.1 8.6 44   13 4 72.4 99.78     LegendNANA
19:00 17.9 8.2 53   14 3 40.2 99.75     Mainly Clear
20:00 16.1 8.1 59   5 3 40.2 99.72     LegendNANA
21:00 15.3 8.8 65   3 7 40.2 99.68     LegendNANA
22:00 12.3 5.3 62   5 10 40.2 99.73     Mainly Clear
23:00 10.5 2.6 58   5 15 40.2 99.77     LegendNANA

Notes on Data Quality.

Legend

  • E = Estimated
  • M = Missing
  • NA = Not Available*
  • [empty] = Indicates an unobserved value
Date modified: